CST,Max TemperatureF,Mean TemperatureF,Min TemperatureF,Max Dew PointF,MeanDew PointF,Min DewpointF,Max Humidity, Mean Humidity, Min Humidity, Max Sea Level PressureIn, Mean Sea Level PressureIn, Min Sea Level PressureIn, Max VisibilityMiles, Mean VisibilityMiles, Min VisibilityMiles, Max Wind SpeedMPH, Mean Wind SpeedMPH, Max Gust SpeedMPH,PrecipitationIn, CloudCover, Events, WindDirDegrees
2012-11-1,80,68,55,70,62,55,100,94,51,30.10,30.03,29.99,10,6,0,12,2,,0.00,2,Fog,228
2012-11-2,80,70,59,72,64,60,100,94,58,30.11,30.06,30.02,10,4,0,9,1,,0.00,4,Fog,233
2012-11-3,82,68,55,70,62,55,100,92,54,30.15,30.09,30.06,10,5,0,9,1,,0.00,3,Fog,194
2012-11-4,77,62,46,70,61,46,100,98,69,30.11,30.08,30.04,7,4,0,17,3,,0.00,5,Fog-Rain,9
2012-11-5,73,65,57,66,63,57,100,96,78,30.08,30.01,29.94,10,6,0,9,5,,0.02,5,Fog-Rain-Thunderstorm,290
2012-11-6,62,55,48,60,54,49,100,96,77,30.09,30.04,29.95,10,6,2,12,6,,0.02,2,,340
2012-11-7,69,56,44,54,46,43,100,82,38,30.15,30.10,30.02,10,7,2,14,3,18,0.00,0,,324
2012-11-8,66,54,43,46,44,41,100,81,40,30.27,30.20,30.15,10,9,7,12,4,,0.00,0,,42
2012-11-9,71,56,42,57,52,42,100,92,60,30.26,30.20,30.17,10,9,7,17,2,,0.00,0,,106
2012-11-10,75,64,54,63,60,54,100,89,65,30.21,30.17,30.14,10,9,7,16,5,,0.00,4,,111
2012-11-11,78,69,60,69,65,60,100,88,65,30.15,30.11,30.07,10,8,7,23,10,22,0.00,5,,131
2012-11-12,72,60,48,70,55,44,100,84,59,30.35,30.24,30.09,10,8,2,31,13,25,0.13,5,Rain-Thunderstorm,6
2012-11-13,57,48,39,43,39,32,93,76,44,30.42,30.33,30.28,10,9,7,23,10,30,0.00,1,,6
2012-11-14,62,52,41,42,39,36,96,75,37,30.34,30.28,30.23,10,9,7,14,5,,0.00,0,,359
2012-11-15,64,50,37,48,42,37,100,88,39,30.31,30.25,30.20,10,9,7,12,4,,0.00,0,,5
2012-11-16,64,54,43,48,45,43,100,92,52,30.31,30.26,30.22,10,9,7,14,3,,0.00,0,,359
2012-11-17,66,54,41,48,44,42,100,88,46,30.35,30.29,30.23,10,9,5,14,4,,0.00,0,,352
2012-11-18,66,54,41,54,45,41,100,89,49,30.33,30.28,30.25,10,8,4,14,3,,0.00,0,,15
2012-11-19,71,57,43,54,49,43,100,93,50,30.29,30.22,30.18,10,9,7,7,1,,0.00,0,,35
2012-11-20,73,58,44,54,49,45,100,84,41,30.23,30.17,30.12,10,8,1,12,1,,0.00,0,,30
2012-11-21,75,60,44,55,50,34,100,90,47,30.24,30.18,30.14,10,6,0,12,1,,0.00,2,Fog-Rain,356
2012-11-22,73,58,42,57,49,43,100,90,41,30.26,30.20,30.17,10,4,0,12,1,,0.00,2,Fog-Rain,174
2012-11-23,73,60,47,61,56,48,100,91,57,30.28,30.22,30.18,10,7,0,10,2,,0.00,5,Fog,359
2012-11-24,60,49,38,58,44,38,100,79,45,30.31,30.23,30.19,10,9,7,14,7,,0.00,3,,19
2012-11-25,64,49,34,52,44,35,100,91,56,30.22,30.15,30.10,10,8,1,12,2,,0.00,0,,137
2012-11-26,64,56,47,65,59,39,100,98,62,30.15,30.09,30.04,10,8,2,18,4,25,0.00,5,Rain,156
2012-11-27,64,57,50,64,58,50,100,100,94,30.30,30.19,30.06,10,6,0,18,7,25,0.00,7,Fog-Rain-Thunderstorm,355
2012-11-28,60,50,40,51,46,40,100,93,52,30.43,30.34,30.28,7,5,0,14,8,,0.00,4,Fog,22
2012-11-29,64,52,39,55,48,39,100,95,72,30.33,30.29,30.24,10,6,0,9,3,,0.00,1,Fog,64
2012-11-30,71,60,48,66,53,48,100,95,57,30.28,30.23,30.19,10,5,0,12,2,,0.00,1,Fog,79